Content
SEND FEEDBACK

Daily
Averages
Monthly
Summary
Canada

QUEBEC CITY, QUEBEC


Home > North America > Canada > Quebec
Elevation: 72 meters     Latitude: 46 48N     Longitude: 071 23W

WEATHER
 
SELECT A DAY
Number of Records: 192,115;   Date Range: 6/30/96 - 7/30/14
 
SHARE

PRINT THIS DATA

[ ← Previous Day ]
WEATHER ALMANAC - 15 MAY, 2014
[ Next Day → ]
[ °F ]   °C
Weather ElementAverageHighLow
Temperature19.1 °C28.9 °C (5:00 pm)9.4 °C (5:00 am)
Dewpoint12.8 °C17 °C (4:00 pm)8.9 °C (5:00 am)
Humidity67.6 %96 % (5:00 am)35 % (5:00 pm)
Barometer1018.6 hPa1021 hPa (1:00 am)1014.9 hPa (5:00 pm)
Wind Speed10.5 km/h25.9 km/h (5:00 pm)
Wind Gust40.7 km/h (5:00 pm)
Weather ElementAverage
Visibility33.8 km
Wind DirectionESE (96.5 °)

Weather ElementTotal
Precipitation---
Cooling Degree Days0.8 (Base 18.3)
Growing Degree Days9.2 (Base 10)
Averaged from 31 records on 15 May, 2014
WEATHER CONDITIONS BREAKOUT
WIND DIRECTION BREAKOUT
WEATHER BY HOUR - 15 MAY, 2014
[ °F ]   °C
Local TimeTemperatureDewpointHumidityBarometerVisibilityWind DirectionWind SpeedGust SpeedPrecipitationEventsConditions
1:00 AM12 °C10 °C88 %1021 hPa24.1 kmNE (40°)11.1 km/hMostly Cloudy
2:00 AM11.7 °C10 °C86 %1020 hPaNE (50°)3.7 km/h
2:00 AM11 °C9 °C88 %1020.7 hPa24.1 kmNNE (30°)11.1 km/hPartly Cloudy
3:00 AM11 °C9 °C88 %1020.7 hPa24.1 kmNE (40°)7.4 km/hScattered Clouds
4:00 AM11 °C10 °C94 %1020.7 hPa24.1 kmNE (40°)9.3 km/hScattered Clouds
5:00 AM9.4 °C8.9 °C96 %1020.3 hPaEast (80°)3.7 km/h
5:00 AM11 °C10 °C94 %1020.3 hPa24.1 kmENE (60°)11.1 km/hMostly Cloudy
6:00 AM11 °C10 °C94 %1020.3 hPa48.3 kmENE (60°)13 km/hMostly Cloudy
7:00 AM12 °C10 °C88 %1020.7 hPa48.3 kmNE (50°)11.1 km/hMostly Cloudy
8:00 AM14.4 °C11.1 °C75 %1020.3 hPaENE (70°)5.6 km/h
8:00 AM15 °C11 °C77 %1021 hPa48.3 kmNE (50°)9.3 km/hMostly Cloudy
9:00 AM17 °C11 °C68 %1020.7 hPa48.3 kmENE (70°)9.3 km/hMostly Cloudy
10:00 AM19 °C12 °C64 %1020.7 hPa48.3 kmNE (50°)5.6 km/hMostly Cloudy
11:00 AM20.6 °C11.7 °C47 %1019.3 hPaNE (40°)3.7 km/h
11:00 AM20 °C12 °C60 %1020.3 hPa48.3 kmNorth (360°)5.6 km/hMostly Cloudy
12:00 PM23 °C14 °C57 %1019 hPa48.3 kmVariable9.3 km/hMostly Cloudy
1:00 PM24 °C15 °C57 %1018.3 hPa22.5 kmVariable3.7 km/hPartly Cloudy
2:00 PM26.1 °C14.4 °C39 %1016.9 hPaSSE (160°)3.7 km/h
2:00 PM26 °C16 °C54 %1017.3 hPa22.5 kmENE (70°)7.4 km/hPartly Cloudy
3:00 PM28 °C16 °C48 %1016.3 hPa22.5 kmVariable7.4 km/hPartly Cloudy
4:00 PM28 °C17 °C51 %1015.9 hPa24.1 kmESE (120°)7.4 km/hMostly Cloudy
5:00 PM28.9 °C16.1 °C35 %1014.9 hPaSouth (190°)22.2 km/h
5:00 PM28 °C17 °C51 %1015.6 hPa32.2 kmSSW (200°)25.9 km/h40.7 km/hMostly Cloudy
6:00 PM27 °C17 °C54 %1015.2 hPa40.2 kmSouth (190°)14.8 km/hMostly Cloudy
7:00 PM26 °C17 °C57 %1015.6 hPa40.2 kmSouth (190°)18.5 km/hMostly Cloudy
8:00 PM25 °C15.6 °C47 %1015.9 hPaSSW (200°)13 km/h
8:00 PM25 °C16 °C57 %1016.3 hPa40.2 kmSouth (180°)13 km/hMostly Cloudy
9:00 PM24 °C16 °C61 %1017.3 hPa24.1 kmSouth (180°)14.8 km/hMostly Cloudy
10:00 PM17 °C12 °C72 %1017.6 hPa24.1 kmEast (90°)11.1 km/hMostly Cloudy
11:00 PM13.9 °C10.6 °C73 %1017.3 hPaENE (70°)9.3 km/h
11:00 PM14 °C10 °C77 %1017.9 hPa24.1 kmENE (60°)20.4 km/hOvercast
Hourly data recorded from CYQB, located 0 kilometers away from Quebec City, Quebec







STORIES FROM OUR PARTNERS